Location: Colossi of Memnon
(25.7167°N, 32.6167°E)
Time: 20:53:01
(UTC+00:00)

Cosmos 1500 Rocket - Pass Details

Date: 05 March 2021
Orbit: 604 x 630 km, 82.5° (Epoch: 21 April)

Event Time Altitude Azimuth Distance (km) Brightness Sun altitude
Rises 02:25:20 0° 353° (N) 2,872 7.0 -24.1°
Reaches altitude 10° 02:27:33 10° 352° (N) 1,969 6.1 -23.6°
Maximum altitude 02:31:55 80° 266° (W) 628 3.4 -22.7°
Drops below altitude 10° 02:36:17 10° 179° (S) 1,976 6.1 -21.7°
Sets 02:38:31 0° 178° (S) 2,883 7.0 -21.2°
